DL2GKM-6 Weather Reports


Display with metric or nautical units.
time (UTC)temp
F
wind
direction
speed
MPH
gust
MPH
rain 1hr
in
rain 24hr
in
rain mn
in
humidity
%
barometer
mb
20260507135536 59 16 5.0 10.0 0.00 5.08 0.01 61 1013.8
20260507135127 59 25 9.0 9.0 0.00 5.08 0.01 60 1014.0
20260507134636 59 11 6.0 4.0 0.00 5.08 0.01 57 1013.9
20260507134221 60 7 3.0 1.0 0.00 5.08 0.01 56 1013.9
20260507133721 60 323 10.0 5.0 0.00 5.08 0.01 56 1014.0
20260507133223 60 326 5.0 5.0 0.00 5.08 0.01 55 1014.0
20260507132806 60 24 5.0 6.0 0.00 5.08 0.01 56 1014.0
20260507132326 59 308 6.0 6.0 0.00 5.08 0.01 58 1014.0
20260507131901 59 318 7.0 7.0 0.00 5.08 0.01 57 1014.0
20260507131456 59 287 10.0 13.0 0.00 5.08 0.01 58 1014.0
20260507131008 59 294 6.0 6.0 0.00 5.08 0.01 56 1013.9
20260507130526 59 288 6.0 2.0 0.00 5.08 0.01 58 1014.0
20260507130048 59 325 10.0 8.0 0.00 5.08 0.01 58 1013.9
20260507125548 59 360 5.0 7.0 0.00 5.08 0.01 57 1013.9
20260507125056 58 282 6.0 7.0 0.00 5.08 0.01 59 1013.9
20260507124646 58 319 9.0 8.0 0.00 5.08 0.01 58 1013.9
20260507124208 58 318 7.0 8.0 0.00 5.08 0.01 60 1013.9
20260507123806 58 333 13.0 11.0 0.00 5.08 0.01 60 1013.8
20260507123401 58 360 7.0 9.0 0.00 5.08 0.01 60 1013.9
20260507122936 58 339 7.0 10.0 0.00 5.08 0.01 60 1013.8
20260507122446 58 64 8.0 3.0 0.00 5.08 0.01 60 1013.8
20260507121956 58 25 3.0 3.0 0.00 5.08 0.01 63 1013.8
20260507121506 57 295 3.0 6.0 0.00 5.08 0.01 64 1013.9
20260507121026 57 319 5.0 5.0 0.00 5.08 0.01 64 1013.9
20260507120556 57 25 7.0 10.0 0.00 5.08 0.01 63 1013.8
20260507120056 57 360 9.0 5.0 0.00 5.08 0.01 63 1013.8
20260507115616 57 10 6.0 8.0 0.00 5.08 0.01 63 1013.8
20260507115156 58 30 9.0 2.0 0.00 5.08 0.01 63 1013.8
20260507114708 58 339 11.0 6.0 0.00 5.08 0.01 63 1013.8
20260507114216 58 3 5.0 6.0 0.00 5.08 0.01 63 1013.8
20260507113748 58 25 7.0 3.0 0.00 5.08 0.01 63 1013.8
20260507113251 58 13 6.0 8.0 0.00 5.08 0.01 64 1013.7
20260507112811 57 24 9.0 7.0 0.00 5.08 0.01 64 1013.8
20260507112406 57 13 9.0 5.0 0.00 5.08 0.01 65 1013.8
20260507111941 57 21 6.0 12.0 0.00 5.08 0.01 65 1013.9
20260507111448 57 30 9.0 8.0 0.00 5.08 0.01 65 1013.9
20260507111006 58 308 9.0 7.0 0.00 5.08 0.01 64 1013.9
20260507110511 58 17 8.0 7.0 0.00 5.08 0.01 64 1013.9
20260507110041 58 316 6.0 8.0 0.00 5.08 0.01 63 1013.9
20260507105546 59 282 5.0 5.0 0.00 5.08 0.01 62 1013.9
20260507105106 59 342 10.0 11.0 0.00 5.08 0.01 63 1013.9
20260507104646 59 274 4.0 3.0 0.00 5.08 0.01 62 1013.9
20260507104206 59 114 2.0 3.0 0.00 5.08 0.01 63 1013.9
20260507103736 58 353 4.0 2.0 0.00 5.08 0.01 65 1013.8
20260507103316 57 28 3.0 0.0 0.00 5.08 0.01 68 1013.9
20260507102848 56 315 2.0 5.0 0.00 5.08 0.01 70 1014.0
20260507102446 56 285 6.0 5.0 0.00 5.08 0.01 70 1014.0
20260507102046 56 28 6.0 4.0 0.00 5.08 0.01 69 1013.9
20260507101621 56 360 7.0 4.0 0.00 5.08 0.01 70 1013.9
20260507101121 56 23 2.0 7.0 0.00 5.08 0.01 70 1013.9
20260507100636 56 339 6.0 1.0 0.00 5.08 0.01 70 1013.9
20260507100136 56 357 7.0 5.0 0.00 5.08 0.01 69 1013.9
20260507095701 57 316 6.0 4.0 0.00 5.08 0.01 68 1013.9
20260507095238 58 27 4.0 3.0 0.00 5.08 0.01 65 1013.8
20260507094801 58 247 1.0 6.0 0.00 5.08 0.01 65 1013.9
20260507094321 58 304 4.0 11.0 0.00 5.08 0.01 66 1013.8
20260507093911 58 123 5.0 0.0 0.00 5.08 0.01 66 1013.8
20260507093411 58 323 4.0 6.0 0.00 5.08 0.01 68 1013.8
20260507092931 58 322 8.0 10.0 0.00 5.08 0.01 66 1013.8
20260507092516 57 337 0.0 3.0 0.00 5.08 0.01 68 1013.7
20260507092028 58 339 11.0 9.0 0.00 5.08 0.01 66 1013.7
20260507091556 57 357 6.0 8.0 0.00 5.08 0.01 72 1013.6
20260507091106 57 353 11.0 9.0 0.00 5.08 0.01 68 1013.6
20260507090636 57 316 6.0 6.0 0.00 5.08 0.01 72 1013.6
20260507090151 56 263 9.0 6.0 0.00 5.08 0.01 73 1013.6
20260507085751 56 320 4.0 6.0 0.00 5.08 0.01 77 1013.5
20260507085316 55 278 4.0 3.0 0.00 5.08 0.01 78 1013.4
20260507084856 54 320 7.0 7.0 0.00 5.08 0.01 79 1013.4
20260507084428 54 272 4.0 2.0 0.00 5.08 0.01 80 1013.4
20260507083928 54 295 2.0 5.0 0.00 5.08 0.01 81 1013.5
20260507083508 53 330 2.0 0.0 0.00 5.08 0.01 81 1013.5
20260507083016 53 144 0.0 2.0 0.00 5.08 0.01 81 1013.5
20260507082536 53 133 0.0 0.0 0.00 5.08 0.01 82 1013.5
20260507082048 53 332 5.0 3.0 0.00 5.08 0.01 81 1013.5
20260507081616 52 256 6.0 7.0 0.00 5.08 0.01 82 1013.5
20260507081141 52 236 5.0 0.0 0.00 5.08 0.01 83 1013.4
20260507080658 53 315 4.0 5.0 0.00 5.08 0.01 82 1013.4
20260507080256 53 219 2.0 0.0 0.00 5.08 0.01 84 1013.3
20260507075806 53 298 5.0 0.0 0.00 5.08 0.01 84 1013.3
20260507075328 53 151 4.0 6.0 0.00 5.08 0.01 84 1013.3
20260507074908 52 277 6.0 3.0 0.00 5.08 0.01 84 1013.2
20260507074408 52 328 3.0 3.0 0.00 5.08 0.01 85 1013.2
20260507074008 52 337 5.0 3.0 0.00 5.08 0.01 85 1013.2
20260507073558 52 21 3.0 8.0 0.00 5.08 0.01 86 1013.2
20260507073121 51 291 3.0 5.0 0.00 5.08 0.01 86 1013.2
20260507072646 51 299 0.0 0.0 0.00 5.08 0.01 86 1013.1
20260507072229 51 346 4.0 9.0 0.00 5.08 0.01 86 1013.1
20260507071756 51 295 4.0 1.0 0.00 5.08 0.01 86 1013.1
20260507071336 51 323 6.0 6.0 0.00 5.08 0.01 86 1013.0
20260507070856 51 18 3.0 5.0 0.00 5.08 0.01 87 1013.1
20260507070411 51 311 1.0 8.0 0.00 5.08 0.01 87 1013.0
20260507065931 51 318 3.0 6.0 0.00 5.08 0.01 87 1013.0
20260507065506 51 318 4.0 2.0 0.00 5.08 0.01 88 1013.0
20260507065036 51 325 4.0 7.0 0.00 5.08 0.01 88 1012.9
20260507064631 51 6 1.0 3.0 0.00 5.08 0.01 88 1012.9
20260507064151 50 263 1.0 0.0 0.00 5.08 0.01 88 1012.9
20260507063730 51 257 0.0 0.0 0.00 5.08 0.01 88 1012.8
20260507063328 50 237 4.0 0.0 0.00 5.08 0.01 88 1012.8
20260507062836 50 299 5.0 3.0 0.00 5.08 0.01 88 1012.7
20260507062408 49 287 2.0 2.0 0.00 5.08 0.01 88 1012.7
20260507061951 50 312 5.0 0.0 0.00 5.08 0.01 89 1012.7
20260507061512 49 315 3.0 9.0 0.00 5.08 0.01 89 1012.7
20260507061101 49 147 0.0 0.0 0.00 5.08 0.01 89 1012.7
20260507060628 49 343 2.0 0.0 0.00 5.08 0.01 88 1012.6
20260507060206 49 285 0.0 3.0 0.00 5.08 0.01 88 1012.6
20260507055721 49 313 0.0 0.0 0.00 5.08 0.01 88 1012.6
20260507055241 49 306 1.0 0.0 0.00 5.08 0.01 88 1012.5
20260507054820 49 278 2.0 3.0 0.00 5.08 0.01 88 1012.5
20260507054351 49 306 6.0 2.0 0.00 5.08 0.01 88 1012.5
20260507053908 49 344 0.0 0.0 0.00 5.08 0.01 88 1012.3
20260507053436 49 346 4.0 2.0 0.00 5.08 0.01 88 1012.3
20260507053006 48 213 7.0 9.0 0.00 5.08 0.01 89 1012.2
20260507052541 48 278 5.0 4.0 0.00 5.08 0.01 89 1012.1
20260507052106 48 267 5.0 5.0 0.00 5.08 0.01 88 1012.1
20260507051641 48 34 0.0 0.0 0.00 5.08 0.01 88 1012.0
20260507051201 48 213 5.0 0.0 0.00 5.08 0.01 88 1012.0
20260507050746 48 239 3.0 3.0 0.00 5.08 0.01 89 1011.9
20260507050301 48 148 4.0 2.0 0.00 5.08 0.01 89 1011.9
20260507045826 48 227 3.0 3.0 0.00 5.08 0.01 89 1011.9
20260507045356 48 349 0.0 0.0 0.00 5.08 0.01 89 1011.8
20260507044921 48 349 0.0 0.0 0.00 5.08 0.01 88 1011.8
20260507044448 48 0 0.0 0.0 0.00 5.08 0.01 88 1011.7
20260507044041 48 347 0.0 4.0 0.00 5.08 0.01 88 1011.7
20260507043626 48 344 0.0 0.0 0.00 5.08 0.01 88 1011.6
20260507043141 48 3 4.0 1.0 0.00 5.08 0.01 87 1011.5
20260507042726 49 104 0.0 0.0 0.00 5.08 0.01 87 1011.5
20260507042228 49 267 0.0 3.0 0.00 5.08 0.01 87 1011.4
20260507041806 49 150 0.0 0.0 0.00 5.08 0.01 86 1011.3
20260507041321 49 292 0.0 0.0 0.00 5.08 0.01 85 1011.3
20260507040836 49 323 0.0 3.0 0.00 5.08 0.01 85 1011.2
20260507040408 49 239 0.0 0.0 0.00 5.08 0.01 84 1011.2
20260507035911 50 308 0.0 0.0 0.00 5.08 0.01 84 1011.2
20260507035426 50 315 0.0 0.0 0.00 5.08 0.01 83 1011.1
20260507035026 50 288 2.0 0.0 0.00 5.08 0.01 83 1011.1
20260507034541 50 85 0.0 0.0 0.00 5.08 0.01 82 1011.1
20260507034106 50 85 0.0 0.0 0.00 5.08 0.01 82 1011.1
20260507033636 50 233 0.0 0.0 0.00 5.08 0.01 82 1011.0
20260507033206 50 233 1.0 0.0 0.00 5.08 0.01 82 1011.0
20260507032748 50 164 0.0 0.0 0.00 5.08 0.01 81 1010.9
20260507032256 50 216 0.0 0.0 0.00 5.08 0.01 81 1010.9
20260507031848 50 216 0.0 0.0 0.00 5.08 0.01 81 1010.9
20260507031431 50 216 0.0 0.0 0.00 5.08 0.01 81 1010.8
20260507030948 50 216 0.0 0.0 0.00 5.08 0.01 81 1010.8
20260507030526 50 219 5.0 4.0 0.00 5.08 0.01 81 1010.8
20260507030126 50 206 3.0 6.0 0.00 5.08 0.01 81 1010.8
20260507025656 50 205 0.0 0.0 0.00 5.08 0.01 81 1010.7
20260507025221 50 208 0.0 0.0 0.00 5.08 0.01 81 1010.7
20260507024741 50 253 8.0 8.0 0.00 5.08 0.01 81 1010.7
20260507024321 50 112 0.0 0.0 0.00 5.08 0.00 81 1010.7
20260507023916 50 199 1.0 0.0 0.00 5.08 0.00 81 1010.7
20260507023428 50 250 6.0 4.0 0.00 5.08 0.00 80 1010.7
20260507022946 50 104 9.0 3.0 0.00 5.08 0.00 80 1010.7
20260507022546 50 254 4.0 3.0 0.00 5.08 0.00 80 1010.5
20260507022138 50 116 5.0 2.0 0.00 5.08 0.00 80 1010.5
20260507021736 50 196 6.0 5.0 0.00 5.08 0.00 80 1010.4
20260507021311 50 10 2.0 1.0 0.00 5.08 0.00 80 1010.4
20260507020901 50 127 0.0 1.0 0.00 5.08 0.00 80 1010.4
20260507020501 50 209 4.0 6.0 0.00 5.08 0.00 79 1010.3
20260507020041 50 165 8.0 5.0 0.00 5.08 0.00 80 1010.3
20260507015631 50 208 2.0 3.0 0.00 5.08 0.00 80 1010.3
20260507015155 50 267 8.0 4.0 0.00 5.08 0.00 80 1010.2
20260507014726 50 215 3.0 5.0 0.00 5.08 0.00 80 1010.2
20260507014321 50 219 6.0 2.0 0.00 5.08 0.00 80 1010.2
20260507013906 50 196 9.0 8.0 0.00 5.08 0.00 80 1010.1
20260507013421 50 186 3.0 3.0 0.00 5.08 0.00 80 1010.1
20260507012936 50 206 4.0 9.0 0.00 5.08 0.00 80 1010.0
20260507012446 50 10 0.0 0.0 0.00 5.08 0.00 80 1010.0
20260507012006 50 247 0.0 0.0 0.00 5.08 0.00 80 1010.0
20260507011601 50 217 5.0 4.0 0.00 5.08 0.00 80 1010.0
20260507011108 50 206 2.0 6.0 0.00 5.08 0.00 80 1010.0
20260507010656 50 179 4.0 6.0 0.00 5.08 0.00 80 1010.0
20260507010248 50 172 3.0 7.0 0.00 5.08 0.00 80 1010.0
20260507005826 50 246 7.0 4.0 0.00 5.08 0.00 80 1010.0
20260507005348 50 250 4.0 17.0 0.00 5.08 0.00 79 1010.0
20260507004906 50 134 12.0 7.0 0.00 5.08 0.00 79 1010.0
20260507004446 50 71 0.0 0.0 0.00 5.08 0.00 80 1009.9
20260507003951 50 169 7.0 3.0 0.00 5.08 0.00 80 1009.9
20260507003548 50 175 0.0 3.0 0.00 5.08 0.00 80 1009.8
20260507003056 50 289 4.0 4.0 0.00 5.08 0.00 80 1009.8
20260507002616 50 280 0.0 2.0 0.00 5.08 0.00 80 1009.8
20260507002211 50 83 2.0 1.0 0.00 5.08 0.00 80 1009.8
20260507001746 50 109 3.0 1.0 0.00 5.08 0.00 80 1009.8
20260507001256 50 104 1.0 2.0 0.00 5.08 0.00 80 1009.8
20260507000851 50 181 1.0 2.0 0.00 5.08 0.00 80 1009.8
20260507000412 50 251 7.0 2.0 0.00 5.08 0.00 80 1009.8
20260506235936 50 288 0.0 0.0 0.00 5.08 0.00 80 1009.7
20260506235531 50 288 0.0 0.0 0.00 5.08 0.00 80 1009.8
20260506235116 50 330 0.0 2.0 0.00 5.08 0.00 80 1009.8
20260506234651 50 176 1.0 5.0 0.00 5.08 0.00 80 1009.7
20260506234226 50 213 4.0 5.0 0.00 5.08 0.00 80 1009.7
20260506233821 50 147 5.0 8.0 0.00 5.08 0.00 80 1009.7
20260506233326 50 148 6.0 6.0 0.00 5.08 0.00 81 1009.7
20260506232921 50 178 0.0 0.0 0.00 5.08 0.00 81 1009.7
20260506232508 50 152 0.0 0.0 0.00 5.08 0.00 81 1009.7
20260506232041 50 137 3.0 1.0 0.00 5.08 0.00 81 1009.7
20260506231546 50 144 3.0 0.0 0.00 5.08 0.00 81 1009.7
20260506231136 50 40 0.0 0.0 0.00 5.08 0.00 82 1009.7
20260506230706 50 217 0.0 0.0 0.00 5.08 0.00 82 1009.6
20260506230236 50 304 8.0 10.0 0.00 5.08 0.00 82 1009.7
20260506225816 50 280 1.0 6.0 0.00 5.08 0.05 82 1009.8
20260506225406 50 103 4.0 1.0 0.00 5.08 0.05 82 1009.8
20260506224928 50 258 5.0 4.0 0.00 5.08 0.05 82 1009.8
20260506224521 50 167 4.0 4.0 0.00 5.08 0.05 82 1009.8
20260506224041 50 112 2.0 0.0 0.00 5.08 0.05 82 1009.7
20260506223621 50 128 0.0 2.0 0.00 5.08 0.05 82 1009.7
20260506223126 50 288 7.0 4.0 0.00 5.08 0.05 81 1009.7
20260506222711 50 189 3.0 0.0 0.00 5.08 0.05 81 1009.7
20260506222306 50 219 6.0 0.0 0.00 5.08 0.05 81 1009.8
20260506221901 50 179 9.0 1.0 0.00 5.08 0.05 81 1009.8
20260506221416 50 257 5.0 9.0 0.00 5.08 0.05 81 1009.8
20260506220921 50 28 3.0 4.0 0.00 5.08 0.05 81 1009.7
20260506220441 50 230 8.0 7.0 0.00 5.08 0.05 81 1009.7
20260506215948 50 222 8.0 10.0 0.00 5.08 0.05 82 1009.8
20260506215501 50 198 8.0 4.0 0.00 5.08 0.05 82 1009.7
20260506215026 50 217 7.0 6.0 0.00 5.08 0.05 82 1009.6
20260506214556 50 306 4.0 6.0 0.00 5.08 0.05 82 1009.5
20260506214115 50 216 0.0 8.0 0.00 5.08 0.05 82 1009.5
20260506213636 50 199 12.0 10.0 0.00 5.08 0.05 82 1009.4
20260506213156 50 188 5.0 2.0 0.00 5.08 0.05 82 1009.4
20260506212736 50 191 5.0 6.0 0.00 5.08 0.05 82 1009.5
20260506212246 50 92 6.0 1.0 0.00 5.08 0.05 83 1009.4
20260506211828 51 154 2.0 7.0 0.00 5.08 0.05 83 1009.3
20260506211341 51 80 1.0 3.0 0.00 5.08 0.05 83 1009.3
20260506210928 51 215 2.0 13.0 0.00 5.08 0.05 83 1009.2
20260506210436 51 161 3.0 5.0 0.00 5.08 0.05 83 1009.2
20260506205941 51 234 5.0 8.0 0.00 5.08 0.05 83 1009.2
20260506205508 51 158 2.0 6.0 0.00 5.07 0.04 83 1009.2
20260506205013 51 71 2.0 0.0 0.00 5.07 0.04 83 1009.3
20260506204551 51 178 1.0 6.0 0.00 5.07 0.04 83 1009.2
20260506204138 51 162 1.0 0.0 0.00 5.07 0.04 83 1009.3
20260506203731 51 88 5.0 2.0 0.00 5.07 0.04 82 1009.2
20260506203246 51 243 7.0 8.0 0.00 5.07 0.04 82 1009.2
20260506202746 51 222 5.0 2.0 0.00 5.07 0.04 83 1009.1
20260506202326 51 7 2.0 3.0 0.00 5.07 0.04 83 1009.0
20260506201846 51 200 5.0 10.0 0.00 5.07 0.04 84 1009.0
20260506201406 52 264 1.0 13.0 0.00 5.07 0.04 84 1009.0
20260506200911 52 205 2.0 5.0 0.00 5.07 0.04 84 1009.0
20260506200441 52 185 8.0 4.0 0.00 5.07 0.04 85 1009.0
20260506195946 52 172 6.0 5.0 0.00 5.07 0.04 85 1008.9
20260506195518 52 192 7.0 6.0 0.00 5.07 0.04 85 1008.7
20260506195116 52 110 2.0 7.0 0.00 5.07 0.04 86 1008.7
20260506194621 52 222 1.0 0.0 0.00 5.07 0.04 87 1008.6
20260506194148 52 128 3.0 0.0 0.00 5.07 0.04 87 1008.5
20260506193716 52 304 5.0 0.0 0.00 5.07 0.04 87 1008.5
20260506193216 52 181 8.0 2.0 0.00 5.07 0.04 87 1008.4
20260506192726 52 263 0.0 0.0 0.00 5.07 0.04 88 1008.4
20260506192311 52 123 0.0 0.0 0.00 5.07 0.04 88 1008.2
20260506191841 52 161 0.0 0.0 0.00 5.07 0.04 88 1008.2
20260506191356 52 164 1.0 0.0 0.00 5.07 0.04 88 1008.3
20260506190908 52 155 3.0 0.0 0.00 5.07 0.04 88 1008.2
20260506190421 52 161 2.0 0.0 0.00 5.07 0.04 89 1008.1
20260506190008 52 182 1.0 0.0 0.00 5.07 0.04 89 1008.1
20260506185508 52 182 1.0 0.0 0.00 5.07 0.04 89 1008.0
20260506185106 52 226 3.0 13.0 0.00 5.07 0.04 89 1008.0
20260506184701 52 114 0.0 0.0 0.00 5.07 0.04 89 1007.9
20260506184216 52 181 6.0 4.0 0.00 5.07 0.04 89 1007.8
20260506183806 52 217 3.0 3.0 0.00 5.07 0.04 90 1007.8
20260506183401 51 116 4.0 0.0 0.00 5.07 0.04 90 1007.8
20260506182946 51 154 0.0 1.0 0.00 5.07 0.04 90 1007.7
20260506182528 51 353 3.0 0.0 0.00 5.07 0.04 90 1007.7
20260506182101 51 216 1.0 0.0 0.00 5.07 0.04 90 1007.6
20260506181628 52 232 0.0 9.0 0.00 5.07 0.04 90 1007.6
20260506181131 52 215 4.0 12.0 0.00 5.07 0.04 90 1007.6
20260506180721 52 103 0.0 0.0 0.00 5.07 0.04 90 1007.6
20260506180241 52 271 0.0 1.0 0.00 5.07 0.04 90 1007.6
20260506175818 52 182 5.0 4.0 0.00 5.07 0.04 91 1007.6
20260506175328 52 179 0.0 3.0 0.00 5.07 0.04 91 1007.6
20260506174841 52 8 6.0 0.0 0.00 5.07 0.04 91 1007.4
20260506174408 52 151 0.0 0.0 0.00 5.07 0.04 91 1007.4
20260506174006 52 151 0.0 0.0 0.00 5.07 0.04 91 1007.3
20260506173548 52 151 0.0 0.0 0.00 5.07 0.04 91 1007.3
20260506173106 52 151 0.0 0.0 0.00 5.07 0.04 92 1007.2
20260506172608 52 62 7.0 0.0 0.00 5.07 0.04 92 1007.2
20260506172116 52 158 4.0 0.0 0.00 5.07 0.04 92 1007.3
20260506171656 52 69 0.0 0.0 0.00 5.07 0.04 92 1007.2
20260506171208 52 69 0.0 0.0 0.00 5.07 0.03 92 1007.1
20260506170806 52 69 0.0 0.0 0.00 5.07 0.03 92 1007.1
20260506170321 52 69 0.0 0.0 0.00 5.07 0.03 92 1007.1
20260506165906 52 69 0.0 0.0 0.00 5.07 0.03 92 1007.1
20260506165441 52 69 3.0 0.0 0.00 5.07 0.03 92 1007.2
20260506165016 52 294 0.0 0.0 0.00 5.07 0.03 92 1007.2
20260506164611 52 217 1.0 0.0 0.00 5.07 0.03 92 1007.2
20260506164136 52 13 5.0 6.0 0.00 5.07 0.03 92 1007.2
20260506163736 52 289 5.0 7.0 0.00 5.07 0.03 91 1007.2
20260506163252 52 0 3.0 7.0 0.00 5.07 0.03 91 1007.1
20260506162811 52 13 4.0 6.0 0.00 5.07 0.03 91 1006.9
20260506162408 52 335 9.0 7.0 0.00 5.07 0.03 91 1006.9
20260506161956 53 14 9.0 3.0 0.00 5.07 0.03 91 1006.9
20260506161501 53 360 6.0 5.0 0.00 5.07 0.03 91 1006.8
20260506161040 53 254 8.0 5.0 0.00 5.07 0.03 90 1006.8
20260506160628 53 61 11.0 12.0 0.00 5.07 0.03 90 1006.8
20260506160221 53 344 3.0 0.0 0.00 5.07 0.03 90 1006.7
20260506155746 54 311 5.0 3.0 0.00 5.07 0.03 90 1006.8
20260506155326 54 326 5.0 1.0 0.00 5.07 0.03 90 1006.7
20260506154911 54 92 8.0 3.0 0.00 5.07 0.03 90 1006.7
20260506154421 54 346 6.0 5.0 0.00 5.07 0.03 90 1006.7
20260506154016 54 28 5.0 4.0 0.00 5.07 0.03 90 1006.6
20260506153606 54 306 1.0 4.0 0.00 5.07 0.03 89 1006.6
20260506153201 54 311 0.0 1.0 0.00 5.07 0.03 89 1006.6
20260506152716 54 287 4.0 3.0 0.00 5.07 0.03 89 1006.6
20260506152216 54 200 6.0 2.0 0.00 5.07 0.03 88 1006.6
20260506151801 55 265 4.0 2.0 0.00 5.07 0.03 88 1006.6
20260506151306 55 126 0.0 0.0 0.00 5.07 0.03 89 1006.5
20260506150816 54 126 0.0 0.0 0.00 5.07 0.03 89 1006.5
20260506150408 54 126 1.0 0.0 0.00 5.07 0.03 89 1006.5
20260506145956 54 174 0.0 0.0 0.00 5.07 0.03 89 1006.5
20260506145541 54 174 0.0 0.0 0.00 5.07 0.03 89 1006.5
20260506145106 54 174 0.0 0.0 0.00 5.07 0.03 89 1006.4
20260506144611 54 174 0.0 0.0 0.00 5.07 0.03 89 1006.3
20260506144206 54 174 0.0 0.0 0.00 5.07 0.03 88 1006.4
20260506143741 55 174 0.0 0.0 0.00 5.07 0.03 88 1006.3
20260506143328 55 174 0.0 0.0 0.00 5.07 0.03 87 1006.3
20260506142828 54 174 0.0 0.0 0.00 5.07 0.02 86 1006.2
20260506142333 54 174 0.0 0.0 0.00 5.07 0.02 86 1006.1
20260506141936 54 174 0.0 0.0 0.00 5.07 0.02 86 1006.1
20260506141521 54 277 1.0 2.0 0.00 5.07 0.02 85 1006.1
20260506141036 55 175 0.0 0.0 0.00 5.07 0.02 85 1006.2
20260506140611 55 258 1.0 6.0 0.00 5.07 0.02 85 1006.1
20260506140121 55 11 2.0 0.0 0.00 5.07 0.02 85 1006.0